Погода в Буоле

Индонезия     1°10′10″N   121°24′23″E
темп.,
°C
ветер,
м/с
пор.,
м/с
влажн.,
%
обл.,
%
осадки,
мм/ч
давл.,
гПа
погр.,
м
2 марта, вт
вт223:00+27юз3382100 0.0 1012431
02:00+26ююз338688 0.0 1010202
05:00+26ююз338579 0.0 1010155
08:00+26юз338342 0.0 1012162
11:00+28ссз127495 0.0 1012319
14:00+29ссз457298 0.2 1009848
17:00+28сз4475100 0.3 1009748
20:00+28с2275100 1.3 1011469
3 марта, ср
ср323:00+28ссв1275100 0.1 1012626
02:00+27юв1279100 0.4 1010305
05:00+26ююз228399 2.3 1010180
08:00+27ю228168 2.8 1011257
11:00+27вюв127645 0.0 1011330
14:00+29всв567168 0.1 1009798
17:00+28всв567532 0.6 1009721
20:00+28в778066 2.1 1011799
4 марта, чт
чт423:00+28всв677595 1.4 1012887
02:00+28всв457598 1.4 1011803
05:00+27в347691 0.1 1010738
08:00+27ююз337995 0.1 1013362
11:00+27вюв0172100 0.0 1012309
14:00+29ссв3364100 0.0 1009821
17:00+29св446777 0.0 10091057
20:00+28всв447560 0.3 1011765
5 марта, пт
пт523:00+27всв5680100 3.9 1011570
02:00+27в4477100 5.8 1010690
05:00+26ююв3380100 1.0 1010463
08:00+26ююз2281100 5.8 1012135
11:00+27с127299 2.7 1012325
14:00+28с236683 2.9 1009825
17:00+28св457520 4.3 1009615
20:00+27в567946 9.6 1011610
6 марта, сб
сб623:00+27вюв6780100 5.8 1012614
02:00+25вюв5687100 13.2 1010486
05:00+24св5697100 47.5 1009368
08:00+25ююв3390100 69.1 1012373
11:00+26юз2280100 0.0 1012313
14:00+26с1175100 0.0 1009233
17:00+28в236974 0.1 1009519
20:00+28вюв236969 0.4 1011585